User: anonymous   Login
Location: Newark
(7.0858°N, 171.3717°E)
Time: 19:57:36
(UTC+00:00)
Language:

DX 1 - Orbit

View from above orbital plane
View from above orbital plane
View from above satellite
View from above satellite

Ground track
Ground track

The orbit data is extracted from the following two-line orbital elements,

1 40071U 14037C   19295.39961607  .00000069  00000-0  16330-4 0  9996
2 40071  98.4420  95.8226 0008265 175.4172 184.7131 14.81299864285867
Epoch (UTC): 22 October 2019 09:35:26
Eccentricity: 0.0008265
inclination: 98.4420°
perigee height: 619 km
apogee height: 631 km
right ascension of ascending node: 95.8226°
argument of perigee: 175.4172°
revolutions per day: 14.81299864
mean anomaly at epoch: 184.7131°
orbit number at epoch: 28586

The dashed part of the orbit path shows where the satellite is in the earth's shadow,  

DLR